Yohin,

7:19 AM MDT on May 24, 2017 (GMT -0600)
Yohin

Weather History for CXYH - May, 2013

Change the Weather History Date:

Thursday, May 16, 2013

  Actual Average Record
Temperature  
Mean Temperature 54 °F -  
Max Temperature 67 °F - - ()
Min Temperature 41 °F - - ()
Degree Days  
Heating Degree Days 11    
Growing Degree Days 4 (Base 50)    
Moisture  
Dew Point 25 °F    
Average Humidity 31    
Maximum Humidity 63    
Minimum Humidity 9    
Precipitation  
Precipitation 0.00 in - - ()
Sea Level Pressure  
Sea Level Pressure 29.71 in    
Wind  
Wind Speed 4 mph ()    
Max Wind Speed 8 mph    
Max Gust Speed 18 mph    
T = Trace of Precipitation, MM = Missing Value Source: Averaged Metar Reports

Daily Weather History Graph

Daily Weather History Graph

Search for Another Location

Airport or City:

Trip Planner

Search our weather history database for the weather conditions in past years. The results will help you decide how hot, cold, wet, or windy it might be!

Date:

Astronomy

May. 16, 2013 Rise Set
Actual Time 5:24 AM MDT 11:00 PM MDT
Civil Twilight 4:12 AM MDT 12:13 AM MDT
Nautical Twilight 2:43 AM MDT 1:38 AM MDT
Astronomical Twilight Sun does not set Sun does not set
Moon 11:41 AM MDT (5/16) 2:49 AM MDT (5/16)
Length of Visible Light 20h 01m
Length of Day
17h 36m
Waxing Crescent, 36% of the Moon is Illuminated
May 16
Waxing Crescent
May 17
First Quarter
May 24
Full
May 31
Last Quarter
Jun 8
New

Hourly Weather History & Observations

Time (MDT) Temp. Windchill Dew Point Humidity Pressure Visibility Wind Dir Wind Speed Gust Speed Precip Events Conditions
12:00 AM 54 °F - 30 °F 27% 29.65 in - WSW 8.1 mph - -  
12:00 AM 53.8 °F - 29.7 °F 40% 29.65 in - WSW 8.1 mph 18.4 mph N/A   Unknown
1:00 AM 52.9 °F - 29.8 °F 41% 29.66 in - West 4.6 mph - N/A   Unknown
2:00 AM 52.5 °F - 27.3 °F 38% 29.67 in - WSW 4.6 mph - N/A   Unknown
3:00 AM 50.5 °F - 26.6 °F 39% 29.68 in - WSW 3.5 mph - N/A   Unknown
4:00 AM 51.4 °F - 25.0 °F 36% 29.69 in - WSW 3.5 mph - N/A   Unknown
5:00 AM 51.1 °F - 24.3 °F 35% 29.70 in - West 3.5 mph - N/A   Unknown
6:00 AM 43 °F - 27 °F 40% 29.73 in - NNW 3.5 mph - -  
6:00 AM 43.3 °F 41.7 °F 27.0 °F 52% 29.73 in - NNW 3.5 mph - N/A   Unknown
7:00 AM 41.5 °F - 29.7 °F 63% 29.75 in - NNE 2.3 mph - N/A   Unknown
8:00 AM 48.0 °F - 30.2 °F 50% 29.76 in - East 1.2 mph - N/A   Unknown
9:00 AM 53.8 °F - 27.3 °F 36% 29.77 in - NE 2.3 mph - N/A   Unknown
10:00 AM 57.7 °F - 25.2 °F 29% 29.77 in - SE 2.3 mph - N/A   Unknown
11:00 AM 60.1 °F - 24.8 °F 26% 29.76 in - WSW 2.3 mph - N/A   Unknown
12:00 PM 61 °F - 22 °F 12% 29.75 in - WSW 3.5 mph - -  
12:00 PM 61.2 °F - 21.9 °F 22% 29.75 in - WSW 3.5 mph - N/A   Unknown
1:00 PM 61.5 °F - 23.2 °F 23% 29.75 in - NW 3.5 mph - N/A   Unknown
2:00 PM 64.9 °F - 23.4 °F 21% 29.73 in - WSW 3.5 mph - N/A   Unknown
3:00 PM 64.2 °F - 25.5 °F 23% 29.72 in - ESE 2.3 mph - N/A   Unknown
4:00 PM 65.1 °F - 23.4 °F 20% 29.71 in - SE 4.6 mph - N/A   Unknown
5:00 PM 66.2 °F - 18.3 °F 16% 29.70 in - West 4.6 mph - N/A   Unknown
6:00 PM 65 °F - 20 °F 9% 29.70 in - WSW 3.5 mph - -  
6:00 PM 65.3 °F - 19.9 °F 18% 29.70 in - WSW 3.5 mph - N/A   Unknown
7:00 PM 65.7 °F - 18.1 °F 16% 29.70 in - WNW 5.8 mph - N/A   Unknown
8:00 PM 67.3 °F - 17.8 °F 15% 29.69 in - West 2.3 mph - N/A   Unknown
9:00 PM 64.8 °F - 21.6 °F 19% 29.69 in - West 2.3 mph - N/A   Unknown
10:00 PM 54.9 °F - 28.4 °F 36% 29.70 in - North 1.2 mph - N/A   Unknown
11:00 PM 46.2 °F - 31.6 °F 57% 29.70 in - Calm Calm - N/A   Unknown